Home > Weather > Orenburg > Past weeks

Flag for Russia Past Weather in Orenburg, Russia — Yesterday and Last 2 Weeks

Now
64 °F

Sunny.


Feels Like: 64 °F
Forecast: 55 / 82 °F
Wind: 3 mph from Northeast

Location: Orenburg / Tsentralny

Current Time: May 24, 2016 at 10:42:20 PM

Latest Report: May 24, 2016 at 10:00 PM


Visibility: 10 mi

Pressure: 29.98 "Hg

Humidity: 52%

Dew Point: 46 °F

Location of OrenburgLocation

Past Weather in Orenburg — Graph

°F

Orenburg Temperature Yesterday

Maximum temperature yesterday: 77 °F (at 3:00 PM)
Minimum temperature yesterday: 50 °F (at 5:00 AM)
Average temperature yesterday: 64 °F

High & Low Weather Summary for the Past Weeks

 TemperatureHumidityPressure
High82 °F (May 24, 2:00 PM)100% (May 10, 5:00 AM)30.18 "Hg (May 10, 5:00 AM)
Low39 °F (May 10, 3:30 AM)20% (May 11, 4:00 PM)29.62 "Hg (May 14, 12:30 AM)
Average58 °F63%29.99 "Hg
* Reported May 9 9:00 PM — May 24 9:30 PM, Orenburg, Weather by CustomWeather, © 2016

Note: Actual official high and low records may vary slightly from our data, if they occured in-between our weather recording intervals... More about our weather records

Advertising

Orenburg Weather History for the Previous 24 Hours

Scroll right to see more
 ConditionsComfort  
Time TempWeatherWind HumidityBarometerVisibility
9:30 PM
Tue, May 24
64 °FPassing clouds.3 mph52%29.98 "HgN/A
9:00 PM70 °FSunny.3 mph46%29.98 "Hg10 mi
8:30 PM72 °FSunny.6 mph41%29.98 "Hg10 mi
8:00 PM75 °FSunny.6 mph34%29.98 "Hg10 mi
7:30 PM77 °FScattered clouds.8 mph34%29.98 "HgN/A
7:00 PM81 °FPartly sunny.3 mph30%29.98 "HgN/A
6:30 PM81 °FPartly sunny.8 mph26%29.98 "HgN/A
6:00 PM82 °FPartly sunny.3 mph20%29.98 "HgN/A
5:30 PM82 °FPartly sunny.3 mph25%29.98 "HgN/A
5:00 PM82 °FPartly sunny.6 mph23%29.98 "HgN/A
4:30 PM82 °FPartly sunny.8 mph25%29.98 "HgN/A
4:00 PM82 °FPartly sunny.8 mph21%30.01 "HgN/A
3:30 PM82 °FPartly sunny.6 mph23%30.01 "HgN/A
3:00 PM82 °FScattered clouds.8 mph25%30.01 "HgN/A
2:30 PM82 °FScattered clouds.8 mph25%30.01 "HgN/A
2:00 PM82 °FScattered clouds.10 mph21%30.01 "HgN/A
1:30 PM81 °FScattered clouds.10 mph26%30.01 "HgN/A
1:00 PM81 °FPassing clouds.8 mph28%30.04 "HgN/A
12:30 PM79 °FPassing clouds.10 mph28%30.04 "HgN/A
12:00 PM79 °FPassing clouds.8 mph30%30.04 "HgN/A
11:30 AM75 °FPassing clouds.8 mph36%30.04 "HgN/A
11:00 AM75 °FSunny.8 mph39%30.04 "Hg10 mi
10:30 AM72 °FPassing clouds.3 mph44%30.04 "HgN/A
10:00 AM72 °FSunny.6 mph47%30.04 "Hg10 mi
9:30 AM68 °FPassing clouds.6 mph49%30.04 "HgN/A
9:00 AM66 °FSunny.8 mph56%30.04 "Hg10 mi
8:30 AM64 °FPassing clouds.6 mph60%30.07 "HgN/A
8:00 AM64 °FPassing clouds.6 mph60%30.04 "HgN/A
7:30 AM61 °FSunny.6 mph68%30.04 "Hg10 mi
7:00 AM59 °FPassing clouds.6 mph72%30.04 "HgN/A
6:30 AM54 °FSunny.1 mph82%30.04 "Hg10 mi
6:00 AM54 °FClear.1 mph77%30.04 "Hg10 mi
5:30 AM54 °FClear.3 mph77%30.04 "Hg10 mi
5:00 AM54 °FPassing clouds.3 mph77%30.04 "HgN/A
4:30 AM55 °FClear.10 mph77%30.04 "Hg10 mi
4:00 AM55 °FPassing clouds.8 mph77%30.04 "HgN/A
3:30 AM54 °FClear.1 mph82%30.04 "Hg10 mi
3:00 AM55 °FClear.1 mph77%30.04 "Hg10 mi
2:30 AM48 °FClear.6 mph94%30.04 "Hg10 mi
2:00 AM55 °FClear.1 mph77%30.04 "Hg10 mi
1:30 AM52 °FPassing clouds.3 mph82%30.04 "HgN/A
1:00 AM55 °FClear.1 mph77%30.04 "Hg10 mi
12:30 AM55 °FClear.1 mph77%30.04 "Hg10 mi
12:00 AM55 °FClear.6 mph77%30.04 "Hg10 mi
11:30 PM
Mon, May 23
57 °FClear.1 mph72%30.04 "Hg10 mi
11:00 PM55 °FPassing clouds.3 mph77%30.04 "HgN/A
10:30 PM57 °FPassing clouds.6 mph77%30.04 "HgN/A
10:00 PM59 °FPassing clouds.3 mph72%30.04 "HgN/A
Weather by CustomWeather, © 2016

See weather overviewHow to use our weather pages